Location: B�hlhof
(48.8000°N, 10.7074°E)
Time: 10:58:26
(UTC+00:00)

Daily predictions for brighter satellites

Satellite Brightness Start Highest point End
(mag) Time Altitude Azimuth Time Altitude Azimuth Time Altitude Azimuth
NOSS 3-1 (A) 4.1 15:46:03 10° NW 15:53:19 69° NE 16:01:54 10° SE
Envisat 4.2 15:48:32 10° S 15:53:26 49° W 15:58:23 10° NNW
Cosmos 1743 Rocket 4.2 15:50:07 10° N 15:54:06 34° ENE 15:58:03 10° SE
NOSS 3-1 (C) 4.2 15:46:44 10° NW 15:54:07 86° SW 16:02:50 10° SE
ATLAS CENTAUR R/B 2.7 15:50:39 10° WSW 15:54:31 34° NW 15:58:41 10° NNE
USA 234 3.3 15:48:06 10° ESE 15:54:38 77° NNE 16:01:11 10° NW
COSMOS 2406 4.4 15:51:00 10° SSE 15:55:25 23° ESE 15:59:51 10° NE
NOSS 2-1 (D) 3.9 15:52:27 10° WSW 15:55:31 39° NW 15:58:46 10° NNE
COSMOS 2455 4.3 15:52:06 10° SE 15:55:58 18° ESE 15:59:51 10° ENE
NOAA 11 4.2 15:50:52 10° SSE 15:56:18 87° ENE 16:01:47 10° NNW
NOAA 12 4.2 15:51:54 10° SSE 15:57:08 61° ENE 16:02:23 10° N
Meteor 1-31 Rocket 3.9 15:55:44 10° S 15:59:24 48° W 16:03:07 10° NNW
Cosmos 1833 Rocket 3.5 15:57:13 10° SSE 16:02:09 33° ESE 16:07:06 10° NE
USA 308 3.4 15:58:20 10° W 16:02:30 49° NNW 16:06:38 10° ENE
ARGOS 4.4 16:00:13 10° ESE 16:04:00 20° ENE 16:07:47 10° NNE
Spot 1 4.4 16:00:20 10° NNE 16:04:58 62° ESE 16:09:51 10° S
Cosmos 1340 Rocket 2.8 16:05:52 10° N 16:09:54 62° ENE 16:13:57 10° SSE
Cosmos 1464 Rocket 4.1 16:03:45 10° S 16:10:08 82° E 16:16:33 10° N
SJ 16-02 3.1 16:06:18 10° NW 16:10:21 37° WSW 16:14:22 10° S
CZ-4C R/B 3.6 16:06:41 10° N 16:10:36 66° WNW 16:14:15 10° SSW
ISS -3.5 16:10:27 10° WNW 16:13:49 57° N 16:17:10 10° E
Cosmos 1606 3.0 16:13:05 10° SSW 16:16:50 69° WNW 16:20:37 10° N
CZ-2D R/B 4.1 16:13:58 10° SE 16:17:17 28° ENE 16:20:37 10° N
Nadezhda 4 Rocket 4.0 16:11:17 10° N 16:17:38 81° E 16:23:58 10° S
Lacrosse 5 rocket 2.4 16:14:43 10° NW 16:18:01 26° N 16:20:54 13° ENE
CZ-4B R/B 3.9 16:15:43 10° ESE 16:20:22 31° ENE 16:24:59 10° N
Cosmos 2360 4.3 16:14:49 10° NNW 16:20:31 60° ENE 16:26:10 10° SE
Meteor 1-20 Rocket 4.3 16:16:07 10° N 16:21:56 65° ENE 16:27:44 10° SSE
CZ-2C R/B 3.8 16:18:55 10° NE 16:22:47 21° E 16:26:36 10° SE
Cosmos 1500 Rocket 3.5 16:18:39 10° N 16:23:06 71° ENE 16:27:30 10° SSE
CZ-4C R/B 3.2 16:17:12 10° NW 16:23:43 45° NE 16:31:25 10° ESE
Cosmos 540 Rocket 4.2 16:19:28 10° SSE 16:23:59 33° ESE 16:28:32 10° NE
CZ-4B R/B 3.2 16:23:22 10° S 16:27:26 68° WSW 16:31:18 10° NNW
Cosmos 1500 3.9 16:25:18 10° N 16:28:39 30° ENE 16:31:57 10° SE
SMAP 3.0 16:24:27 10° SSE 16:29:06 75° ENE 16:33:46 10° N
USA 305 3.6 16:25:48 10° W 16:29:50 42° N 16:32:56 16° ENE
Cosmos 44 Rocket 4.5 16:26:09 10° NNW 16:30:13 24° NNE 16:33:01 15° ENE
CZ-2C R/B 3.4 16:26:25 10° S 16:31:17 64° WSW 16:36:02 10° NNW
Cosmos 1092 Rocket 4.0 16:26:04 10° N 16:32:24 65° ENE 16:38:40 10° SSE
Cosmos 468 Rocket 4.0 16:28:31 10° S 16:33:36 64° ESE 16:38:46 10° NNE
Cosmos 1898 Rocket 3.4 16:28:55 10° NNW 16:34:13 82° ENE 16:39:26 10° SSE
Cosmos 1805 Rocket 3.6 16:30:23 10° N 16:34:40 55° ENE 16:38:55 10° SSE
Sich 1 3.3 16:31:12 10° N 16:35:19 44° ENE 16:39:27 10° SSE
Cosmos 1933 3.5 16:32:55 10° S 16:36:51 52° E 16:40:48 10° NNE
Cosmos 1428 Rocket 4.5 16:31:02 10° N 16:37:07 61° ENE 16:43:12 10° SSE
Cosmos 2360 Rocket 3.9 16:36:46 10° N 16:39:23 13° NNE 16:40:27 13° NE
Cosmos 1842 Rocket 4.1 16:35:10 10° SSW 16:39:34 61° WNW 16:44:03 10° N
Cosmos 2221 3.4 16:35:32 10° SSW 16:39:42 52° WNW 16:43:56 10° N
PSLV R/B 3.6 16:38:48 10° SSE 16:42:25 60° ENE 16:46:07 10° N
SL-08 R/B 4.3 16:40:13 10° N 16:44:46 48° WNW 16:49:14 10° SW
Cosmos 2084 4.4 16:46:53 10° NW 16:51:04 50° SW 16:55:23 10° SSE
deb Chang Zheng 4 3.9 16:48:07 10° SE 16:52:11 42° ENE 16:56:17 10° N
AQUARIUS 4.3 16:48:15 10° S 16:52:44 77° WSW 16:57:15 10° NNW
Cosmos 1627 Rocket 4.4 16:46:54 10° N 16:53:08 77° E 16:59:15 10° SSE
H-2A R/B 1.9 16:49:58 10° SSE 16:55:05 68° ENE 17:00:07 10° N
Cosmos 2034 Rocket 4.4 16:50:19 10° SSW 16:56:26 67° WNW 17:02:35 10° N
Meteor 1-14 Rocket 4.4 16:50:53 10° N 16:56:31 50° ENE 17:02:15 10° SSE
NOSS 2-2 (C) 4.2 16:52:35 10° NW 16:57:35 75° NE 17:04:37 10° SE
Cosmos 1666 3.1 16:54:54 10° N 16:58:22 35° ENE 17:01:46 10° SE
ERBS 3.8 16:55:56 10° WNW 16:58:38 24° NNW 16:59:46 20° NNE
Cosmos 2322 Rocket 3.4 16:54:59 10° N 16:59:19 21° NE 17:00:05 21° NE
USA 306 3.6 16:58:01 10° WNW 17:02:02 40° N 17:03:44 27° NE
Cosmos 2279 Rocket 4.2 16:56:40 10° SSE 17:02:31 46° E 17:08:24 10° NNE
Cosmos 1697 Rocket 3.1 16:57:11 10° NNW 17:02:46 67° WSW 17:08:19 10° SSE
USA 267 3.3 16:58:13 19° NE 17:03:10 75° NNW 17:09:41 10° WSW
SJ-11-01 4.5 16:58:53 10° SE 17:03:27 49° ENE 17:08:02 10° N
Cosmos 2369 3.7 17:00:24 10° NNW 17:06:12 89° ENE 17:11:55 10° SSE
Cosmos 1980 Rocket 2.1 17:01:00 10° NNW 17:06:43 74° ENE 17:12:20 10° SE
COSMO-SKYMED 1 2.9 17:05:08 23° NE 17:07:27 43° E 17:11:36 10° S
MOS 1-B Rocket 4.0 17:01:51 10° NNE 17:07:39 63° ESE 17:14:10 10° S
Cosmos 1763 Rocket 3.8 17:03:27 10° SSW 17:08:29 65° WNW 17:13:30 10° NNE
Meteor 1-5 Rocket 4.4 17:02:50 10° N 17:08:45 56° ENE 17:14:33 10° SSE
Cosmos 1939 Rocket 4.4 17:05:07 10° SSW 17:08:59 39° W 17:12:51 10° NNW
SL-24 R/B - RUBIN 2 3.4 17:07:08 10° NW 17:11:44 86° NE 17:15:48 12° SE
Meteor 2-21 4.4 17:06:06 10° N 17:12:14 88° W 17:18:17 10° S
Cosmos 841 Rocket 3.4 17:08:47 10° S 17:13:54 67° ESE 17:17:15 22° NNE
Cosmos 1812 2.8 17:11:48 10° S 17:15:32 53° E 17:16:31 40° NE
Cosmos 1937 Rocket 4.0 17:10:26 10° NNW 17:15:43 64° WSW 17:20:58 10° S
SL-16 R/B 2.9 17:11:34 10° NNW 17:16:38 32° NE 17:17:26 30° ENE
Cosmos 1125 Rocket 4.2 17:12:22 10° N 17:17:02 31° NE 17:17:07 31° ENE
Cosmos 1634 Rocket 4.0 17:11:42 10° S 17:18:02 89° E 17:24:25 10° N
Cosmos 1633 Rocket 3.0 17:14:18 10° N 17:18:38 57° ENE 17:22:57 10° SSE
USA 307 3.6 17:16:21 10° WNW 17:20:25 41° N 17:21:20 35° NE
YAOGAN 1 3.8 17:22:20 25° NNE 17:22:20 25° NNE 17:24:31 10° N
Cosmos 2082 Rocket 2.2 17:15:53 10° SSW 17:21:29 62° ESE 17:24:28 28° NE
Cosmos 2026 Rocket 4.3 17:17:57 10° NNW 17:24:03 68° W 17:30:03 10° S
Cosmos 2333 Rocket 4.0 17:21:40 10° N 17:24:11 15° NNE 17:24:11 15° NNE
Okean O Rocket 1.5 17:25:30 10° SSE 17:29:56 83° ENE 17:34:26 10° NNW
Cosmos 372 Rocket 4.2 17:24:50 10° NNW 17:30:04 74° WSW 17:35:17 10° SSE
ATLAS 2AS CENTAUR R/B 4.2 17:24:06 10° WNW 17:30:17 26° N 17:33:28 19° NNE
Cosmos 2278 3.6 17:24:55 10° NNW 17:30:41 81° ENE 17:36:22 10° SSE
SKYMED 3 4.4 17:29:31 30° NNE 17:31:38 76° ESE 17:35:58 10° S
ATLAS CENTAUR R/B 3.9 17:32:30 10° NW 17:34:44 13° NNW 17:36:14 12° N
Cosmos 1151 Rocket 2.9 17:32:07 10° S 17:36:26 82° E 17:38:08 37° NNE
Cosmos 1782 3.5 17:32:38 10° SSW 17:36:33 52° WNW 17:39:43 15° N
Cosmos 1655 Rocket 4.0 17:30:19 10° N 17:36:38 56° ENE 17:42:52 10° SSE
USA 234 4.4 17:31:52 10° SSE 17:37:59 41° SW 17:44:06 10° WNW
COSMOS 2406 3.5 17:33:32 10° SW 17:39:15 66° WNW 17:43:05 21° NNE
COSMOS 2455 2.8 17:35:03 10° SSW 17:41:04 89° SE 17:43:55 34° NE
Meteor 2-15 4.4 17:36:28 10° S 17:42:25 56° E 17:45:42 27° NNE
USA 308 3.5 17:38:53 10° WNW 17:42:51 42° N 17:42:51 42° N
Cosmos 1666 Rocket 3.9 17:39:04 10° NNW 17:43:30 67° W 17:47:53 10° S
ARGOS 3.2 17:38:16 10° S 17:43:41 79° WSW 17:49:07 10° NNW
Cosmos 1833 Rocket 3.5 17:40:29 10° SW 17:45:53 47° NW 17:49:48 19° NNE
Cosmos 1470 Rocket 4.4 17:42:14 10° N 17:45:00 36° N 17:45:00 36° N
Cosmos 2180 Rocket 4.4 17:42:31 10° S 17:48:52 77° E 17:55:10 10° NNE
Meteor 2-6 Rocket 4.1 17:44:53 10° S 17:50:38 75° E 17:53:25 31° NNE
ISS -2.7 17:47:22 10° WNW 17:50:10 45° WSW 17:50:10 45° WSW
Cosmos 1328 Rocket 3.4 17:46:20 10° S 17:50:47 82° E 17:50:52 81° ENE
Cosmos 2219 Rocket 4.1 17:50:43 10° N 17:52:22 15° N 17:52:22 15° N
SKYMED 2 3.9 17:53:45 33° N 17:55:35 63° WNW 17:59:52 10° SSW
CZ-4 R/B 3.9 17:59:49 12° N 17:59:49 12° N 18:00:08 10° N
Lacrosse 5 rocket 2.1 17:53:44 10° NW 17:56:30 42° NNW 17:56:30 42° NNW
Landsat 5 3.6 18:00:26 66° SW 18:00:26 66° SW 18:03:59 10° SSW
NOAA 15 4.4 17:55:01 10° SSE 18:00:19 84° ENE 18:05:37 10° NNW
Cosmos 2298 Rocket 3.9 17:55:11 10° NNW 18:00:27 72° ENE 18:00:27 72° ENE
CZ-4B R/B 4.1 17:55:33 10° S 18:00:45 47° W 18:05:55 10° NNW
Cosmos 1570 Rocket 3.9 17:56:05 10° SSW 18:01:20 89° ESE 18:02:05 66° NNE
Meteor 2-8 Rocket 4.4 17:55:51 10° S 18:02:01 89° W 18:08:04 11° N
ATLAS CENTAUR R/B 2.6 17:55:27 10° WSW 18:03:01 55° NNW 18:03:24 53° NNW
GEOS 3 Rocket 3.5 18:02:08 54° SSE 18:03:22 85° SW 18:08:37 10° NW
CZ-2C R/B 3.0 17:59:22 16° N 18:03:32 61° WNW 18:08:36 10° SSW
SL-08 RB Rocket 4.0 17:58:55 10° S 18:03:32 68° WSW 18:08:09 10° NNW
Meteor 1-11 Rocket 3.6 18:02:25 10° N 18:07:51 74° NE 18:07:51 74° NE
Cosmos 1818 3.5 18:03:04 10° NW 18:08:36 88° SW 18:09:03 76° SSE
Meteor 1-10 Rocket 4.1 18:02:54 10° S 18:08:42 77° E 18:09:02 74° ENE
Cosmos 1814 Rocket 4.1 18:03:53 10° SSW 18:09:06 71° WNW 18:10:08 55° N
USA 305 4.1 18:06:07 10° WNW 18:08:56 36° NW 18:08:56 36° NW
Cosmos 44 Rocket 3.4 18:07:24 10° NW 18:11:47 69° NW 18:11:47 69° NW
CZ-4C R/B 3.3 18:05:36 10° NW 18:12:46 67° SW 18:20:10 14° SSE
Cosmos 2360 Rocket 3.6 18:19:30 10° NNW 18:22:13 26° N 18:22:13 26° N
Cosmos 2208 Rocket 4.4 18:28:47 10° SW 18:33:46 62° W 18:33:46 62° W
Cosmos 2322 Rocket 3.2 18:38:26 10° NNW 18:41:55 39° NNW 18:41:55 39° NNW
USA 267 3.8 18:45:34 46° N 18:45:46 46° N 18:51:56 10° WNW
SL-16 R/B 3.3 18:55:31 10° NW 18:59:21 40° WNW 18:59:21 40° WNW
Cosmos 2082 Rocket 3.8 19:01:07 10° WSW 19:05:59 29° NW 19:06:21 28° NW
Cosmos 2333 Rocket 4.4 19:04:58 10° NNW 19:06:11 16° NNW 19:06:11 16° NNW
ATLAS 2AS CENTAUR R/B 4.2 19:16:46 10° NW 19:20:53 27° NNW 19:20:53 27° NNW
